Regional Weather Roundup
Issued by NWS

Home | Current Version | Previous Version | Text Only | Print | Product List | Glossary On
Versions: 1 2 3 4 5 6 7 8 9 10 11 12 13 14 15 16 17 18 19 20 21 22 23 24 25 26 27 28 29 30 31 32 33 34 35 36 37 38 39 40 41 42 43 44 45 46 47 48 49 50
000
ASUS43 KDTX 180510
RWRMI
MICHIGAN HOURLY REGIONAL WEATHER ROUNDUP
NATIONAL WEATHER SERVICE DETROIT/PONTIAC MI
1200 AM EST MON DEC 18 2017

NOTE: "FAIR" INDICATES FEW OR NO CLOUDS BELOW 12,000 FEET WITH NO
SIGNIFICANT WEATHER AND/OR OBSTRUCTION TO VISIBILITY.

MIZ047>049-052>055-059>063-066>070-074>076-081>083-180600-
SOUTHEAST LOWER MICHIGAN

CITY           SKY/WX    TMP DP  RH WIND       PRES   REMARKS
ADRIAN         CLOUDY    35  33  92 W5        30.03F WCI  31
ALMA           CLOUDY    28  27  99 CALM      29.98F FOG
ANN ARBOR      FOG       26  25  96 S3        30.01F VSB 1
BAD AXE        CLOUDY    27  25  93 S6        30.01S FOG     WCI  20
CARO           CLOUDY    27  27  97 CALM      29.99F FOG
DETROIT CITY   PTCLDY    34  31  88 SW6       30.04S WCI  29
DETROIT        CLOUDY    33  30  88 SW6       30.04S WCI  28
FLINT          CLOUDY    29  27  92 S6        29.99F FOG     WCI  23
GROSSE ILE     CLOUDY    37  34  90 SW3       30.03S
HILLSDALE      CLOUDY    34  32  93 S8        29.99F FOG     WCI  27
HOWELL         CLOUDY    33  32  95 S6        29.99F FOG     WCI  28

CITY           SKY/WX    TMP DP  RH WIND       PRES   REMARKS
JACKSON        CLOUDY    38  33  82 S9        29.99F WCI  31
LAMBERTVILLE   CLOUDY    38  35  87 S6        30.03F WCI  34
LANSING        CLOUDY    32  31  96 MISG      29.98F FOG
LAPEER         MOCLDY    27  26  97 SE3       30.00F FOG
MASON          CLOUDY    33  30  88 CALM      29.98F FOG
MONROE         CLOUDY    37  34  87 S6        30.03S WCI  33
MT. CLEMENS    CLOUDY    28  28 100 CALM      30.01S FOG
PONTIAC        CLOUDY    30  30 100 S3        30.00S FOG
PORT HOPE        N/A     27  24  89 S7        30.00S WCI  19
PORT HURON     CLOUDY    25  21  86 CALM      30.02F
TRI CITIES     CLOUDY    28  27  96 CALM      29.99F FOG
MIDLAND        CLOUDY    28  27  94 CALM      29.98F FOG
TROY           CLOUDY    30  28  92 CALM      30.04F FOG
SAGINAW HB     CLOUDY    28  27  93 CALM      29.99F FOG
$$
MIZ043>046-050>051-056>058-064>065-071>073-077>080-180600-
SOUTHWEST LOWER MICHIGAN

CITY           SKY/WX    TMP DP  RH WIND       PRES   REMARKS
BATTLE CREEK   CLOUDY    37  33  85 SW9       29.99S WCI  30
BENTON HARBOR  CLOUDY    40  34  79 S6        29.99F
BIG RAPIDS     FOG       27  26  96 CALM      29.94F VSB 1
COLDWATER      CLOUDY    37  36  94 SW7       30.00S WCI  32
HOLLAND        CLOUDY    32  29  88 SW3       29.97F
GRAND RAPIDS   CLOUDY    28  27  96 S5        29.96F FOG     WCI  23
IONIA          FOG       28  27  99 S6        29.96F VSB 3/4 WCI  21
KALAMAZOO      CLOUDY    38  34  85 S7        29.99F WCI  33
LUDINGTON      CLOUDY    29  27  92 E3        29.95S FOG
MARSHALL       CLOUDY    37  35  91 SW7       29.99S WCI  32
MOUNT PLEASANT FOG       28  27  95 CALM      29.96F VSB 1/4
MUSKEGON       CLOUDY    31  27  85 CALM      29.96F FOG
SOUTH HAVEN    CLOUDY    43  37  78 SW9G16    29.98S
$$
MIZ016>042-180600-
NORTHERN LOWER MICHIGAN

CITY           SKY/WX    TMP DP  RH WIND       PRES   REMARKS
ALPENA         CLOUDY    29  27  92 S8        29.99F WCI  21
BEAVER ISLAND  CLOUDY    32  29  90 S3        29.96F
BELLAIRE       CLOUDY    27  27  97 S6        29.98F WCI  21
CADILLAC       FOG       25  24  99 CALM      29.93S VSB 1
CHARLEVOIX     CLOUDY    28  26  93 SE3       30.00F FOG
FRANKFORT      CLOUDY    30  29  96 SE3       29.95F FOG
GAYLORD        FOG       23  21  92 S7        29.93F VSB 3/4 WCI  15
GRAYLING       LGT SNOW  24  23  94 CALM      29.96F
HARBOR SPRINGS CLOUDY    27  25  92 CALM      29.98S
HOUGHTON LAKE  FOG       25  24  96 S3        29.95F VSB 1/4
MANISTEE       CLOUDY    28  26  92 E7        29.95F FOG     WCI  21
OSCODA         CLOUDY    29  27  90 S5        29.99F FOG     WCI  24
PELLSTON       CLOUDY    26  24  92 CALM      29.98F
ROGERS CITY    CLOUDY    28  25  86 S7        30.00S WCI  21
TRAVERSE CITY  CLOUDY    28  25  88 SE3       29.96F FOG
$$
MIZ007>008-015-180600-
EASTERN UPPER MICHIGAN

CITY           SKY/WX    TMP DP  RH WIND       PRES   REMARKS
MACKINAC ISLAN CLOUDY    28  24  84 S8        29.97F WCI  20
NEWBERRY       LGT SNOW  20  19  97 CALM      29.94F
S. S. MARIE    LGT SNOW  21  18  88 CALM      29.99S FOG
MUNISING         N/A     27  26  96 CALM      29.94F
$$
MIZ004>006-011>014-085-180600-
CENTRAL UPPER MICHIGAN

CITY           SKY/WX    TMP DP  RH WIND       PRES   REMARKS
MANISTIQUE     CLOUDY    31  26  81 CALM      29.94F
ESCANABA       CLOUDY    28  26  92 W5        29.95F WCI  23
MENOMINEE      CLOUDY    29  28  96 NW3       29.95F FOG
SAWYER-GWINN   LGT SNOW  26  24  96 SW6       29.91F WCI  19
$$
MIZ001>003-009>011-084-180600-
WESTERN UPPER MICHIGAN

CITY           SKY/WX    TMP DP  RH WIND       PRES   REMARKS
IRON MOUNTAIN  LGT SNOW  27  24  89 S3        29.90F FOG
HOUGHTON       CLOUDY    26  21  81 SW6       29.87F WCI  19
COPPER HARBOR    N/A     28  23  81 CALM      29.90F
IRONWOOD       CLOUDY    26  24  92 SW13      29.89F WCI  15
$$

ABBREVIATIONS USED IN REMARKS
   TC - TEMPERATURE IN CELSIUS
  WCI - WIND CHILL INDEX
   HX - HEAT INDEX
  VSB - VISIBILITY





USA.gov is the U.S. government's official web portal to all federal, state and local government web resources and services.